Showing default

COSMOS 2092, 20737

Orbit data source: Space-Track

COSMOS 2092, 20737 is a payload satellite owned by UNKS (CIS) in LEO that was launched on Wed, 08 Aug 1990 UTC via a TSIKLON-3 launch vehicle from the Plesetsk Missile And Space Complex (PKMTR). Payload-class satellites include a variety of spacecraft equipped with specific instruments for various scientific and technological missions. These include communications satellites like Starlink; space stations such as the ISS; scientific satellites like the Hubble; Earth observation satellites from companies like Planet Labs, Umbra, and HawkEye 360; GPS; miniature CubeSats for education and research; and military/defense satellites.

Loading next visibility...
Identifier
20737, 1990-070C
Orbit
LEO
Country
Flag of CISCIS
Related business
Manufacturer
NPO PM
Mission
Defense Communications
Bus & Motor
STRELA-3, Unknown motor
Mass
225 kg wet, 225 kg dry
Launch date (UTC)
1990-08-08 (35 years ago)
Launch vehicle
TSIKLON-3
Launch site
Plesetsk Missile And Space Complex (PKMTR)
Object type
Payload
Rocket body
Debris
Shape & HBR
Cyl, 0.8 m
Radar Cross Section
1.257 m², Large (>1 m²)

Expand to show TLE details & history
Last TLE update: 21 hours ago

TLE from 21 hours ago
0 COSMOS 2092
1 20737U 90070C   25257.57581728  .00000012  00000-0  57680-5 0  9993
2 20737  82.5668 122.2714 0005138  43.6551  21.7668 12.63339755618555
Epoch: 2025-09-14T13:49Z
TLE epoch observation values (Epoch: 2025-09-14T13:49:10.612Z)
Latitude
64.4921°
Longitude
-63.0275°
Altitude
1,416.561 km
Speed
7.16 km/s
True Right ascension
09h 12m 14s
True Declination
64° 22' 10"
Sunlit
Object was in daylight at epoch
Visualization orbit readout
Latitude
Unknown
Longitude
Unknown
Altitude
Unknown
Speed
Unknown
Apparent Right ascension
Unknown
Apparent Declination
Unknown
Sunlit
N/A
Visualization observer readout
Local Sidereal Time
03:52:10
Azimuth
Unknown
Elevation
Unknown
Doppler factor
Unknown
Orbital elements
Apogee altitude
1,410.509 km
Perigee altitude
1,402.51 km
Semi-major axis
7,784.646 km
Eccentricity
0.00051
Inclination
82.5668°
RAAN
122.2714°
Arg. of periapsis
43.6551°
True anomaly
21.78865°
Mean anomaly
21.7668°
Eccentric anomaly
21.77772°
Mean motion
3.15998 °/min
Orbital period
113.92 mins
BSTAR
0.000005768
Loading maneuver chart data...
Computing Atmospheric mass density...
Loading historical data...
Loading historical data...
Loading historical data...
Loading historical data...
Loading historical data...
Loading historical data...
Loading historical data...

Documentation

Showing up to 5 results
|